Погода в Марусине

Россия / Тамбовская область     53°23′25″N   41°56′27″E
В апреле 2022 года жителям России запретили посещать сайт meteo.paraplan.net по решению Генеральной прокуратуры. Аудитория сайта уменьшилась в 10 раз. Владельцы сайта не видят смысла в поддержке погодного сервера в таких условиях. Сайт будет закрыт в октябре.
темп.,
°C
ветер,
м/с
пор.,
м/с
влажн.,
%
обл.,
%
осадки,
мм/ч
давл.,
гПа
погр.,
м
4 октября, вт
вт400:00+10ююв413775 0.0 1012465
03:00+10ююв5157616 0.0 1013559
06:00+9ююв5147715 0.0 1014475
09:00+12ююв41171100 0.0 1014539
12:00+15ююв51058100 0.0 10151235
15:00+16ююв51158100 0.1 10141618
18:00+14ююв5126865 0.1 10141037
21:00+12ю51384100 0.8 1015953
5 октября, ср
ср500:00+11ю41090100 3.4 1015582
03:00+11ююз3889100 3.9 1015595
06:00+10ююз4108481 0.2 1016755
09:00+10ююз49785 0.2 1016875
12:00+11ююз597099 0.1 10161357
15:00+11юз5976100 0.6 10171309
18:00+9юз3786100 1.0 1017506
21:00+7юз4108719 1.8 1017519
6 октября, чт
чт600:00+6зюз498974 0.1 1018535
03:00+6з3892100 0.2 1018628
06:00+6з3788100 0.6 1018737
09:00+8зсз488050 0.9 1019818
12:00+10зсз457199 0.4 10191209
15:00+9зсз3670100 0.6 1019535
18:00+9з2469100 0.0 102177
21:00+8юз259190 0.1 1021203
7 октября, пт
пт700:00+6юз2292100 0.0 102239
03:00+9ююз389583 0.0 1020257
06:00+9юз31097100 0.0 1020311
09:00+11зюз41184100 0.0 1019489
12:00+15зсз5873100 0.0 1020897
15:00+15зсз476528 0.0 10211188
18:00+11сз27820 0.0 1023148
21:00+8сз26900 0.0 1026124
8 октября, сб
сб800:00+7зсз22920 0.0 102724
03:00+7з11925 0.0 102712
06:00+6юз22941 0.0 102823
09:00+10юз24800 0.0 1028280
12:00+14зюз34615 0.0 1027822
15:00+15юз34565 0.0 1026897
18:00+10ююз22765 0.0 102620
21:00+9ююз248245 0.0 102560